Tracking 29494 objects as of 8-Sep-2024
HD Live streaming from Space Station
objects crossing your sky now

STARLINK-1210

Track STARLINK-1210 now!
10-day predictions
STARLINK-1210 is classified as:


NORAD ID: 45207
Int'l Code: 2020-012AF
Perigee: 548.7 km
Apogee: 551.8 km
Inclination: 53.1 °
Period: 95.5 minutes
Semi major axis: 6921 km
RCS: Unknown
Launch date: February 17, 2020
Source: United States (US)
Launch site: AIR FORCE EASTERN TEST RANGE (AFETR)
Your satellite tracking list
Your tracking list is empty




NASA's NSSDC Master Catalog

Two Line Element Set (TLE):
1 45207U 20012AF  24251.50810580  .00039459  00000-0  25594-2 0  9991
2 45207  53.0559 327.4484 0002263  40.3334 319.7824 15.07730249252493
Source of the keplerian elements: AFSPC